When you browse on this site, cookies collect data to enhance your experience and personalize the content and advertising you see.
Visit our Privacy Policy to learn more. By continuing to use the site, you agree to this use of cookies and data.
  • In Hungary
  • List of Countries
  • For 7 days
  • Water Temperature
  • Weather Map
  • News
  • Weather Widgets
  • user-avatar
    Login

    Hourly Weather Jhalawar

    Today, 14 November, Thursday

    Time Temperature Precipitation Wind Pressure Humidity
    00:00 +25°C° 0 mm 2 mps 733 mmHg 53%
    01:00 +25°C° 0 mm 2 mps 733 mmHg 54%
    02:00 +25°C° 0 mm 2 mps 733 mmHg 56%
    03:00 +24°C° 0 mm 2 mps 733 mmHg 56%
    04:00 +24°C° 0 mm 2 mps 733 mmHg 57%
    05:00 +23°C° 0 mm 2 mps 733 mmHg 59%
    06:00 +24°C° 0 mm 2 mps 734 mmHg 58%
    07:00 +25°C° 0 mm 2 mps 734 mmHg 57%
    08:00 +26°C° 0 mm 2 mps 735 mmHg 56%
    09:00 +27°C° 0 mm 2 mps 735 mmHg 50%
    10:00 +29°C° 0 mm 3 mps 735 mmHg 44%
    11:00 +30°C° 0 mm 3 mps 735 mmHg 38%
    12:00 +31°C° 0 mm 3 mps 734 mmHg 36%
    13:00 +31°C° 0 mm 3 mps 733 mmHg 34%
    14:00 +33°C° 0 mm 3 mps 733 mmHg 32%
    15:00 +31°C° 0 mm 2 mps 732 mmHg 35%
    16:00 +30°C° 0 mm 1 mps 732 mmHg 38%
    17:00 +29°C° 0 mm 1 mps 732 mmHg 41%
    18:00 +28°C° 0 mm 1 mps 733 mmHg 42%
    19:00 +27°C° 0 mm 1 mps 733 mmHg 43%
    20:00 +27°C° 0 mm 1 mps 733 mmHg 44%
    21:00 +26°C° 0 mm 1 mps 733 mmHg 46%
    22:00 +25°C° 0 mm 1 mps 733 mmHg 49%
    23:00 +25°C° 0 mm 1 mps 733 mmHg 51%

    Tomorrow, 15 November, Friday

    Time Temperature Precipitation Wind Pressure Humidity
    00:00 +24°C° 0 mm 1 mps 733 mmHg 52%
    01:00 +24°C° 0 mm 1 mps 732 mmHg 53%
    02:00 +23°C° 0 mm 1 mps 732 mmHg 55%
    03:00 +23°C° 0 mm 1 mps 732 mmHg 55%
    04:00 +22°C° 0 mm 1 mps 732 mmHg 56%
    05:00 +22°C° 0 mm 1 mps 732 mmHg 57%
    06:00 +23°C° 0 mm 1 mps 733 mmHg 55%
    07:00 +24°C° 0 mm 1 mps 733 mmHg 52%
    08:00 +25°C° 0 mm 1 mps 734 mmHg 50%
    09:00 +26°C° 0 mm 1 mps 734 mmHg 45%
    10:00 +28°C° 0 mm 1 mps 734 mmHg 41%
    11:00 +29°C° 0 mm 1 mps 734 mmHg 36%
    12:00 +30°C° 0 mm 1 mps 733 mmHg 34%
    13:00 +31°C° 0 mm 1 mps 733 mmHg 31%
    14:00 +31°C° 0 mm 2 mps 732 mmHg 28%
    15:00 +30°C° 0 mm 1 mps 732 mmHg 31%
    16:00 +29°C° 0 mm 1 mps 731 mmHg 33%
    17:00 +28°C° 0 mm 1 mps 731 mmHg 36%
    18:00 +27°C° 0 mm 1 mps 732 mmHg 36%
    19:00 +27°C° 0 mm 1 mps 732 mmHg 37%
    20:00 +26°C° 0 mm 1 mps 733 mmHg 38%
    21:00 +26°C° 0 mm 1 mps 732 mmHg 39%
    22:00 +25°C° 0 mm 1 mps 732 mmHg 40%
    23:00 +25°C° 0 mm 1 mps 732 mmHg 41%

    Day after tomorrow, 16 November, Saturday

    Time Temperature Precipitation Wind Pressure Humidity
    00:00 +24°C° 0 mm 1 mps 732 mmHg 43%
    01:00 +23°C° 0 mm 1 mps 732 mmHg 45%
    02:00 +23°C° 0 mm 1 mps 731 mmHg 47%
    03:00 +23°C° 0 mm 1 mps 731 mmHg 48%
    04:00 +22°C° 0 mm 1 mps 731 mmHg 49%
    05:00 +20°C° 0 mm 0 mps 732 mmHg 50%
    06:00 +23°C° 0 mm 1 mps 732 mmHg 48%
    07:00 +24°C° 0 mm 1 mps 733 mmHg 47%
    08:00 +24°C° 0 mm 1 mps 733 mmHg 46%
    09:00 +26°C° 0 mm 1 mps 733 mmHg 42%
    10:00 +27°C° 0 mm 1 mps 733 mmHg 38%
    11:00 +29°C° 0 mm 2 mps 733 mmHg 35%
    12:00 +30°C° 0 mm 2 mps 733 mmHg 33%
    13:00 +30°C° 0 mm 2 mps 732 mmHg 31%
    14:00 +31°C° 0 mm 2 mps 732 mmHg 29%
    15:00 +30°C° 0 mm 1 mps 732 mmHg 32%
    16:00 +29°C° 0 mm 1 mps 732 mmHg 34%
    17:00 +28°C° 0 mm 1 mps 732 mmHg 37%
    18:00 +25°C° 0 mm 0 mps 732 mmHg 38%
    19:00 +25°C° 0 mm 0 mps 733 mmHg 39%
    20:00 +24°C° 0 mm 0 mps 733 mmHg 40%
    21:00 +25°C° 0 mm 1 mps 733 mmHg 42%
    22:00 +25°C° 0 mm 1 mps 733 mmHg 44%
    23:00 +24°C° 0 mm 1 mps 733 mmHg 46%

    17 November, Sunday

    Time Temperature Precipitation Wind Pressure Humidity
    00:00 +24°C° 0 mm 1 mps 733 mmHg 47%
    01:00 +23°C° 0 mm 1 mps 733 mmHg 49%
    02:00 +23°C° 0 mm 1 mps 733 mmHg 51%
    03:00 +20°C° 0 mm 0 mps 733 mmHg 52%
    04:00 +20°C° 0 mm 0 mps 733 mmHg 53%
    05:00 +20°C° 0 mm 0 mps 732 mmHg 54%
    06:00 +21°C° 0 mm 0 mps 733 mmHg 51%
    07:00 +24°C° 0 mm 1 mps 734 mmHg 49%
    08:00 +25°C° 0 mm 1 mps 735 mmHg 47%
    09:00 +26°C° 0 mm 1 mps 735 mmHg 43%
    10:00 +28°C° 0 mm 2 mps 734 mmHg 39%
    11:00 +29°C° 0 mm 2 mps 734 mmHg 35%
    12:00 +30°C° 0 mm 2 mps 734 mmHg 33%
    13:00 +31°C° 0 mm 2 mps 733 mmHg 31%
    14:00 +31°C° 0 mm 2 mps 732 mmHg 28%
    15:00 +30°C° 0 mm 2 mps 732 mmHg 32%
    16:00 +29°C° 0 mm 2 mps 732 mmHg 35%
    17:00 +28°C° 0 mm 1 mps 732 mmHg 38%
    18:00 +27°C° 0 mm 1 mps 732 mmHg 39%
    19:00 +26°C° 0 mm 1 mps 733 mmHg 41%
    20:00 +23°C° 0 mm 0 mps 733 mmHg 43%
    21:00 +23°C° 0 mm 0 mps 733 mmHg 44%
    22:00 +22°C° 0 mm 0 mps 733 mmHg 46%
    23:00 +22°C° 0 mm 0 mps 733 mmHg 48%

    18 November, Monday

    Time Temperature Precipitation Wind Pressure Humidity
    00:00 +24°C° 0 mm 1 mps 733 mmHg 49%
    01:00 +23°C° 0 mm 1 mps 732 mmHg 50%
    02:00 +23°C° 0 mm 1 mps 732 mmHg 51%
    03:00 +22°C° 0 mm 1 mps 732 mmHg 52%
    04:00 +22°C° 0 mm 1 mps 732 mmHg 53%
    05:00 +21°C° 0 mm 1 mps 732 mmHg 54%
    06:00 +22°C° 0 mm 1 mps 733 mmHg 53%
    07:00 +23°C° 0 mm 1 mps 734 mmHg 51%
    08:00 +24°C° 0 mm 1 mps 734 mmHg 50%
    09:00 +25°C° 0 mm 1 mps 734 mmHg 45%
    10:00 +27°C° 0 mm 1 mps 734 mmHg 41%
    11:00 +29°C° 0 mm 1 mps 734 mmHg 37%
    12:00 +29°C° 0 mm 1 mps 733 mmHg 35%
    13:00 +30°C° 0 mm 1 mps 733 mmHg 33%
    14:00 +30°C° 0 mm 1 mps 732 mmHg 30%
    15:00 +29°C° 0 mm 1 mps 732 mmHg 33%
    16:00 +28°C° 0 mm 1 mps 732 mmHg 36%
    17:00 +28°C° 0 mm 1 mps 732 mmHg 39%
    18:00 +27°C° 0 mm 1 mps 732 mmHg 40%
    19:00 +26°C° 0 mm 1 mps 732 mmHg 41%
    20:00 +25°C° 0 mm 1 mps 733 mmHg 42%
    21:00 +23°C° 0 mm 0 mps 732 mmHg 43%
    22:00 +23°C° 0 mm 0 mps 732 mmHg 44%
    23:00 +22°C° 0 mm 0 mps 732 mmHg 46%

    19 November, Tuesday

    Time Temperature Precipitation Wind Pressure Humidity
    00:00 +22°C° 0 mm 0 mps 732 mmHg 47%
    01:00 +23°C° 0 mm 1 mps 732 mmHg 48%
    02:00 +23°C° 0 mm 1 mps 731 mmHg 49%
    03:00 +22°C° 0 mm 1 mps 731 mmHg 49%
    04:00 +22°C° 0 mm 1 mps 731 mmHg 50%
    05:00 +21°C° 0 mm 1 mps 731 mmHg 50%
    06:00 +22°C° 0 mm 1 mps 732 mmHg 47%
    07:00 +23°C° 0 mm 1 mps 732 mmHg 45%
    08:00 +24°C° 0 mm 1 mps 733 mmHg 42%
    09:00 +25°C° 0 mm 1 mps 733 mmHg 38%
    10:00 +27°C° 0 mm 1 mps 733 mmHg 34%
    11:00 +29°C° 0 mm 1 mps 733 mmHg 31%
    12:00 +29°C° 0 mm 1 mps 732 mmHg 29%
    13:00 +30°C° 0 mm 1 mps 731 mmHg 28%
    14:00 +30°C° 0 mm 1 mps 730 mmHg 27%
    15:00 +29°C° 0 mm 1 mps 730 mmHg 30%
    16:00 +28°C° 0 mm 1 mps 730 mmHg 32%
    17:00 +27°C° 0 mm 1 mps 730 mmHg 35%
    18:00 +26°C° 0 mm 1 mps 730 mmHg 35%
    19:00 +26°C° 0 mm 1 mps 731 mmHg 36%
    20:00 +25°C° 0 mm 1 mps 731 mmHg 37%
    21:00 +24°C° 0 mm 1 mps 731 mmHg 38%
    22:00 +24°C° 0 mm 1 mps 731 mmHg 39%
    23:00 +23°C° 0 mm 1 mps 731 mmHg 40%
    Show more